Location: Newark
(25.0000°N, 73.5000°E)
Time: 00:52:58
(UTC+00:00)

Tiros 1 despin weight - All Passes

Search period start: 31 July 2021 00:00
Search period end: 10 August 2021 00:00
Orbit: 593 x 642 km, 48.2° (Epoch: 30 July)

Date Brightness Start Highest point End Pass type
(mag) Time Alt. Az. Time Alt. Az. Time Alt. Az.
31 Jul - 05:45:56 10° SE 05:47:27 11° SE 05:48:59 10° ESE daylight
31 Jul - 07:23:55 10° SW 07:28:32 74° NW 07:33:13 10° NE daylight
31 Jul - 09:08:38 10° NW 09:10:41 13° NNW 09:12:44 10° N daylight
31 Jul - 14:18:36 10° N 14:21:32 16° NNE 14:24:25 10° ENE visible
31 Jul - 15:58:50 10° NW 16:03:27 75° SW 16:07:58 10° SE visible
01 Aug - 05:59:33 10° S 06:03:28 28° SE 06:07:25 10° ENE daylight
01 Aug - 07:40:41 10° WSW 07:44:53 34° NW 07:49:09 10° NNE daylight
01 Aug - 14:33:59 10° NNW 14:38:06 30° NE 14:42:09 10° E visible
01 Aug - 16:15:31 10° WNW 16:19:34 31° SW 16:23:33 10° SSE visible
02 Aug - 06:15:02 10° SW 06:19:34 67° SE 06:24:12 10° NE daylight
02 Aug - 07:58:16 10° WNW 08:01:26 18° NNW 08:04:37 10° N daylight
02 Aug - 13:10:40 10° N 13:12:16 12° NNE 13:13:51 10° NE daylight
02 Aug - 14:49:51 10° NW 14:54:28 66° NE 14:59:01 10° SE visible
02 Aug - 16:33:32 10° W 16:35:34 13° SW 16:37:36 10° SSW visible
03 Aug - 04:51:44 10° SSE 04:54:37 17° SE 04:57:32 10° E daylight
03 Aug - 06:31:20 10° WSW 06:35:49 53° NW 06:40:24 10° NE daylight
03 Aug - 13:25:25 10° NNW 13:28:57 21° NE 13:32:27 10° E daylight
03 Aug - 15:06:10 10° NW 15:10:41 52° SW 15:15:07 10° SSE visible
04 Aug - 05:06:25 10° SSW 05:10:40 39° SE 05:14:59 10° ENE daylight
04 Aug - 06:48:24 10° W 06:52:15 26° NW 06:56:09 10° NNE daylight
04 Aug - 13:41:02 10° NNW 13:45:26 41° NE 13:49:47 10° ESE daylight
04 Aug - 15:23:12 10° WNW 15:26:45 22° SW 15:30:16 10° S visible
05 Aug - 05:22:15 10° SW 05:26:50 87° NW 05:31:29 10° NE daylight
05 Aug - 07:06:26 10° WNW 07:08:52 14° NNW 07:11:19 10° N daylight
05 Aug - 12:17:06 10° N 12:19:44 15° NNE 12:22:21 10° ENE daylight
05 Aug - 13:57:04 10° NW 14:01:45 88° SW 14:06:21 10° SE daylight
06 Aug - 03:58:12 10° S 04:01:48 23° SE 04:05:27 10° ENE daylight
06 Aug - 05:38:52 10° WSW 05:43:08 38° NW 05:47:30 10° NNE daylight
06 Aug - 12:32:21 10° NNW 12:36:20 27° NE 12:40:17 10° E daylight
06 Aug - 14:13:38 10° WNW 14:17:53 36° SW 14:22:06 10° SSE visible
07 Aug - 04:13:26 10° SSW 04:17:53 56° SE 04:22:24 10° NE daylight
07 Aug - 05:56:16 10° W 05:59:39 20° NW 06:03:04 10° NNE daylight
07 Aug - 11:09:37 10° NNE 11:10:26 10° NNE 11:11:15 10° NE daylight
07 Aug - 12:48:09 10° NW 12:52:45 56° NE 12:57:18 10° ESE daylight
07 Aug - 14:31:11 10° W 14:33:55 16° SW 14:36:39 10° SSW visible
08 Aug - 02:50:43 10° SSE 02:52:59 14° SE 02:55:15 10° E daylight
08 Aug - 04:29:36 10° SW 04:34:06 62° NW 04:38:41 10° NE daylight
08 Aug - 06:15:05 10° NW 06:16:22 11° NNW 06:17:37 10° NNW daylight
08 Aug - 11:23:52 10° NNW 11:27:10 19° NNE 11:30:27 10° E daylight
08 Aug - 13:04:23 10° NW 13:08:59 62° SW 13:13:32 10° SSE daylight
09 Aug - 03:04:57 10° SSW 03:08:59 32° SE 03:13:05 10° ENE daylight
09 Aug - 04:46:32 10° W 04:50:29 29° NW 04:54:31 10° NNE daylight
09 Aug - 11:39:22 10° NNW 11:43:41 36° NE 11:47:58 10° ESE daylight
09 Aug - 13:21:13 10° WNW 13:25:05 26° SW 13:28:55 10° S daylight
